O3B PFM (39191 NORAD) Tracking and Keplerian Element Data

This shows tracking and keplerian element data for the satellite.

Feedback or suggestion? Click here.




ElementValue
Catalog39191
NameO3B PFM
Epoch Orbit22768
Epoch Day353.5375153
Epoch Year2025
RAAN15.0235
Inclination0.0398
Eccentricity0.0004437
Argument of Perigee263.4509
Mean Anonmoly81.4775
Mean Motion5.00115992
Decay Rate-1.5E-07
L11 39191U 13031D 25353.53751530 -.00000015 00000+0 00000+0 0 9993
L22 39191 0.0398 15.0235 0004437 263.4509 81.4775 5.00115992227687



Live tracking and technical data element details for O3B PFM (NORAD 39191). O3B PFM can be tracked NOW for your location showing map with azimuth and elevation plus other details from your city location.







IsCatalogInMostPopularTable: catalog: 39191, numindb: 507
Update: records affected: 1



GetName: 39191 O3B PFM

Hit Count: updated at: Mon, 11 May 2026 11:22:22 GMT